KE4OGG Weather Reports


Display with metric or nautical units.
time (UTC)temp
F
wind
direction
speed
MPH
gust
MPH
rain 1hr
in
rain 24hr
in
rain mn
in
humidity
%
barometer
mb
20240518223528 78 314 0.0 4.0 0.00 0.01 0.01 67 1010.9
20240518223029 79 319 0.0 2.0 0.00 0.01 0.01 68 1011.0
20240518222525 79 327 0.0 3.0 0.00 0.01 0.01 67 1011.2
20240518222025 79 318 0.0 3.0 0.00 0.01 0.01 67 1011.1
20240518221528 79 303 1.0 3.0 0.00 0.01 0.01 67 1011.1
20240518221026 80 86 0.0 3.0 0.00 0.01 0.01 66 1011.2
20240518220527 80 349 1.0 5.0 0.00 0.01 0.01 65 1011.2
20240518220033 80 352 1.0 5.0 0.00 0.01 0.01 65 1011.2
20240518215526 81 321 1.0 5.0 0.00 0.01 0.01 65 1011.2
20240518215025 81 0 0.0 3.0 0.00 0.01 0.01 66 1011.3
20240518214530 80 73 0.0 4.0 0.00 0.01 0.01 66 1011.2
20240518214025 80 285 1.0 5.0 0.00 0.01 0.01 66 1011.1
20240518213526 79 286 1.0 5.0 0.00 0.01 0.01 68 1011.4
20240518213036 79 279 0.0 5.0 0.00 0.01 0.01 68 1011.4
20240518212528 79 293 0.0 5.0 0.00 0.01 0.01 69 1011.4
20240518212025 79 318 1.0 3.0 0.00 0.01 0.01 69 1011.5
20240518211539 78 314 1.0 4.0 0.00 0.01 0.01 68 1011.5
20240518211025 78 282 0.0 4.0 0.00 0.01 0.01 69 1011.5
20240518210525 78 358 1.0 4.0 0.00 0.01 0.01 70 1011.6
20240518210030 78 326 1.0 4.0 0.00 0.01 0.01 69 1011.5
20240518205530 79 284 1.0 6.0 0.00 0.15 0.01 69 1011.5
20240518205025 79 322 0.0 6.0 0.00 0.15 0.01 69 1011.6
20240518204527 79 4 1.0 6.0 0.00 0.15 0.01 69 1011.6
20240518204024 79 315 1.0 5.0 0.00 0.15 0.01 67 1011.7
20240518203524 80 319 2.0 6.0 0.00 0.15 0.01 66 1011.7
20240518203027 81 314 1.0 6.0 0.00 0.15 0.01 67 1011.8
20240518202525 80 69 2.0 6.0 0.00 0.15 0.01 69 1011.8
20240518202028 79 266 1.0 7.0 0.00 0.15 0.01 69 1011.9
20240518201532 79 133 1.0 7.0 0.00 0.15 0.01 69 1011.9
20240518201025 78 287 1.0 10.0 0.00 0.15 0.01 70 1012.0
20240518200526 79 4 2.0 10.0 0.00 0.15 0.01 69 1012.1
20240518200030 79 285 2.0 10.0 0.00 0.15 0.01 68 1012.0
20240518195528 79 7 2.0 6.0 0.00 0.15 0.01 69 1012.0
20240518195026 79 303 2.0 5.0 0.00 0.15 0.01 68 1012.1
20240518194524 79 309 2.0 5.0 0.00 0.15 0.01 68 1012.0
20240518194025 79 293 2.0 5.0 0.00 0.15 0.01 68 1012.1
20240518193525 79 338 1.0 5.0 0.00 0.15 0.01 68 1012.1
20240518193024 79 76 1.0 5.0 0.00 0.15 0.01 67 1012.3
20240518192523 79 352 1.0 4.0 0.00 0.15 0.01 68 1012.5
20240518192023 79 271 1.0 4.0 0.00 0.15 0.01 68 1012.7
20240518191539 79 330 0.0 3.0 0.00 0.15 0.01 68 1012.8
20240518191024 79 63 0.0 4.0 0.00 0.15 0.01 68 1012.8
20240518190522 79 144 0.0 4.0 0.00 0.15 0.01 68 1012.9
20240518190035 79 300 1.0 4.0 0.00 0.15 0.01 67 1013.1
20240518185524 80 77 0.0 2.0 0.00 0.15 0.01 68 1013.0
20240518185026 79 339 0.0 4.0 0.00 0.15 0.01 69 1013.0
20240518184523 79 290 1.0 4.0 0.00 0.15 0.01 68 1013.1
20240518184022 79 321 1.0 4.0 0.00 0.15 0.01 68 1013.1
20240518183523 79 309 0.0 5.0 0.00 0.15 0.01 69 1013.3
20240518183024 79 19 1.0 5.0 0.00 0.15 0.01 68 1013.3
20240518182530 79 322 1.0 5.0 0.00 0.15 0.01 68 1013.4
20240518182021 79 307 1.0 5.0 0.00 0.15 0.01 68 1013.4
20240518181531 79 277 1.0 4.0 0.00 0.15 0.01 69 1013.3
20240518181020 79 331 2.0 5.0 0.00 0.15 0.01 69 1013.4
20240518180523 79 347 2.0 5.0 0.00 0.15 0.01 68 1013.3
20240518180027 79 335 1.0 5.0 0.00 0.15 0.01 69 1013.2
20240518175524 78 325 1.0 5.0 0.00 0.15 0.01 69 1013.4
20240518175023 78 313 2.0 5.0 0.00 0.15 0.01 68 1013.2
20240518174526 78 303 1.0 4.0 0.00 0.15 0.01 69 1013.2
20240518174027 79 295 1.0 4.0 0.00 0.15 0.01 68 1013.2
20240518173523 78 292 1.0 8.0 0.00 0.15 0.01 69 1013.1
20240518173023 78 280 2.0 8.0 0.00 0.15 0.01 70 1013.1
20240518172522 78 269 0.0 6.0 0.00 0.15 0.01 70 1013.2
20240518172023 79 298 2.0 6.0 0.00 0.15 0.01 68 1013.2
20240518171527 79 0 1.0 5.0 0.00 0.15 0.01 69 1013.3
20240518171024 78 314 0.0 5.0 0.00 0.15 0.01 68 1013.4
20240518170523 79 263 1.0 5.0 0.00 0.15 0.01 68 1013.3
20240518170025 79 341 1.0 2.0 0.00 0.15 0.01 67 1013.4
20240518165523 79 56 0.0 1.0 0.00 0.15 0.01 68 1013.4
20240518165020 79 94 0.0 4.0 0.00 0.15 0.01 69 1013.5
20240518164523 79 0 0.0 4.0 0.00 0.15 0.01 68 1013.5
20240518164023 79 276 0.0 3.0 0.00 0.15 0.01 68 1013.3
20240518163523 79 0 0.0 3.0 0.00 0.15 0.01 69 1013.4
20240518163024 79 301 1.0 3.0 0.00 0.15 0.01 68 1013.5
20240518162523 78 73 0.0 5.0 0.00 0.15 0.01 69 1013.5
20240518162024 78 77 0.0 5.0 0.00 0.15 0.01 69 1013.6
20240518161525 77 325 1.0 3.0 0.00 0.15 0.01 69 1013.4
20240518161024 77 278 1.0 2.0 0.00 0.15 0.01 69 1013.3
20240518160525 77 275 1.0 2.0 0.00 0.15 0.01 69 1013.3
20240518160026 78 91 0.0 2.0 0.00 0.15 0.01 69 1013.4
20240518155524 78 87 0.0 3.0 0.00 0.15 0.01 70 1013.5
20240518155025 77 269 1.0 3.0 0.00 0.15 0.01 71 1013.7
20240518154526 76 0 0.0 1.0 0.00 0.15 0.01 74 1013.8
20240518154028 75 209 0.0 3.0 0.00 0.15 0.01 75 1013.9
20240518153525 74 0 0.0 3.0 0.00 0.15 0.01 75 1013.8
20240518153033 75 83 0.0 1.0 0.00 0.15 0.01 74 1014.0
20240518152525 74 0 0.0 2.0 0.00 0.15 0.01 75 1014.0
20240518152025 74 0 0.0 2.0 0.00 0.15 0.01 76 1013.9
20240518151537 74 0 0.0 1.0 0.00 0.15 0.01 77 1013.8
20240518151029 74 0 0.0 1.0 0.00 0.15 0.01 76 1013.9
20240518150528 73 0 0.0 1.0 0.00 0.15 0.01 77 1013.8
20240518150027 73 0 0.0 1.0 0.00 0.15 0.01 77 1013.9
20240518145525 73 0 0.0 1.0 0.00 0.15 0.01 76 1013.9
20240518145024 73 0 0.0 1.0 0.00 0.15 0.01 76 1013.8
20240518144529 73 38 0.0 2.0 0.00 0.15 0.01 76 1013.6
20240518144025 73 0 0.0 2.0 0.00 0.15 0.01 76 1013.5
20240518143524 73 0 0.0 2.0 0.00 0.15 0.01 76 1013.4
20240518143038 73 0 1.0 3.0 0.00 0.15 0.01 76 1013.3
20240518142524 73 270 0.0 3.0 0.00 0.15 0.01 77 1013.2
20240518142024 73 0 0.0 2.0 0.00 0.15 0.01 78 1013.1
20240518141530 72 270 0.0 2.0 0.00 0.15 0.01 78 1013.0
20240518141028 72 269 0.0 6.0 0.00 0.15 0.01 78 1013.1
20240518140525 71 283 0.0 6.0 0.00 0.15 0.01 79 1013.1
20240518140029 72 274 1.0 4.0 0.00 0.15 0.01 78 1013.0
20240518135526 72 279 0.0 1.0 0.00 0.15 0.01 79 1013.3
20240518135027 71 0 0.0 2.0 0.00 0.15 0.01 79 1013.5
20240518134529 71 0 0.0 2.0 0.00 0.15 0.01 79 1013.3
20240518134025 71 269 0.0 2.0 0.00 0.15 0.01 79 1013.1
20240518133525 71 278 0.0 3.0 0.00 0.15 0.01 81 1013.0
20240518133034 70 0 0.0 3.0 0.00 0.15 0.01 82 1013.1
20240518132525 70 278 0.0 4.0 0.00 0.15 0.01 81 1013.0
20240518132026 70 0 1.0 4.0 0.00 0.15 0.01 81 1013.1
20240518131531 70 281 0.0 3.0 0.00 0.15 0.01 82 1013.3
20240518131022 69 269 0.0 3.0 0.00 0.15 0.01 82 1013.4
20240518130523 69 0 0.0 1.0 0.00 0.15 0.01 82 1013.4
20240518130029 69 321 0.0 1.0 0.00 0.15 0.01 82 1013.3
20240518125519 69 321 0.0 0.0 0.00 0.15 0.01 83 1013.3
20240518125022 69 0 0.0 1.0 0.00 0.15 0.01 83 1013.2
20240518124528 69 0 0.0 1.0 0.00 0.15 0.01 83 1013.2
20240518124020 69 0 0.0 1.0 0.00 0.15 0.01 83 1013.0
20240518123524 68 0 0.0 1.0 0.00 0.15 0.01 84 1013.1
20240518123030 68 0 0.0 1.0 0.00 0.15 0.01 85 1013.0
20240518122525 68 0 0.0 2.0 0.00 0.15 0.01 85 1013.2
20240518122023 68 332 0.0 3.0 0.00 0.15 0.01 85 1013.3
20240518121538 67 30 0.0 3.0 0.00 0.15 0.01 85 1013.3
20240518121023 67 269 0.0 2.0 0.00 0.15 0.01 85 1013.3
20240518120523 67 0 0.0 2.0 0.00 0.15 0.01 85 1013.3
20240518120023 67 284 0.0 2.0 0.00 0.15 0.01 86 1013.3
20240518115523 67 245 0.0 1.0 0.00 0.15 0.01 86 1013.4
20240518115023 67 0 0.0 1.0 0.00 0.15 0.01 86 1013.5
20240518114526 67 0 0.0 1.0 0.00 0.15 0.01 86 1013.3
20240518114022 66 0 0.0 1.0 0.00 0.15 0.01 86 1013.2
20240518113522 66 0 0.0 2.0 0.00 0.15 0.01 86 1013.3
20240518113040 66 0 0.0 2.0 0.00 0.15 0.01 86 1013.1
20240518112523 66 0 0.0 2.0 0.00 0.15 0.01 86 1013.2
20240518112023 66 0 0.0 1.0 0.00 0.15 0.01 86 1013.3
20240518111524 66 0 0.0 1.0 0.00 0.15 0.01 86 1013.5
20240518111026 66 0 0.0 1.0 0.00 0.15 0.01 86 1013.6
20240518110523 66 0 0.0 1.0 0.00 0.15 0.01 86 1013.1
20240518110035 66 96 0.0 1.0 0.00 0.15 0.01 86 1012.8
20240518105524 66 0 0.0 1.0 0.00 0.15 0.01 86 1013.0
20240518105023 66 0 0.0 0.0 0.00 0.15 0.01 86 1013.1
20240518104523 66 0 0.0 0.0 0.00 0.15 0.01 86 1013.0
20240518104023 66 0 0.0 0.0 0.00 0.15 0.01 86 1013.0
20240518103520 66 0 0.0 0.0 0.00 0.15 0.01 86 1012.8
20240518103024 66 0 0.0 0.0 0.00 0.15 0.01 86 1012.8
20240518102523 66 0 0.0 1.0 0.00 0.15 0.01 86 1012.4
20240518102022 66 0 0.0 1.0 0.00 0.15 0.01 86 1012.4
20240518101535 66 0 0.0 1.0 0.00 0.15 0.01 86 1012.6
20240518101051 66 0 0.0 0.0 0.00 0.15 0.01 86 1012.7
20240518100525 66 0 0.0 1.0 0.00 0.15 0.01 86 1012.8
20240518100056 66 0 0.0 1.0 0.00 0.15 0.01 86 1012.8
20240518095526 66 0 0.0 1.0 0.00 0.15 0.01 86 1012.9
20240518095024 66 0 0.0 1.0 0.00 0.15 0.01 86 1013.1
20240518094541 66 0 0.0 1.0 0.00 0.15 0.01 86 1012.9
20240518094025 66 0 0.0 1.0 0.00 0.15 0.01 86 1012.7
20240518093528 66 0 0.0 1.0 0.00 0.15 0.01 86 1012.5
20240518093030 66 0 0.0 1.0 0.00 0.15 0.01 86 1012.9
20240518092526 66 213 0.0 1.0 0.00 0.15 0.01 86 1012.9
20240518092025 66 0 0.0 0.0 0.00 0.15 0.01 86 1012.9
20240518091527 66 0 0.0 0.0 0.00 0.15 0.01 86 1012.7
20240518091028 66 0 0.0 0.0 0.00 0.15 0.01 86 1012.7
20240518090525 66 190 0.0 1.0 0.00 0.15 0.01 86 1012.5
20240518090026 66 0 0.0 1.0 0.00 0.15 0.01 86 1012.4
20240518085524 66 0 0.0 1.0 0.00 0.15 0.01 86 1012.7
20240518085025 66 0 0.0 1.0 0.00 0.15 0.01 86 1012.8
20240518084529 66 279 0.0 1.0 0.00 0.15 0.01 86 1012.7
20240518084025 66 0 0.0 1.0 0.00 0.15 0.01 86 1012.4
20240518083525 66 0 0.0 1.0 0.00 0.15 0.01 86 1012.4
20240518083027 66 0 0.0 1.0 0.00 0.15 0.01 86 1012.8
20240518082524 66 0 0.0 1.0 0.00 0.15 0.01 86 1012.5
20240518082025 66 0 0.0 1.0 0.00 0.15 0.01 86 1012.2
20240518081531 66 0 0.0 1.0 0.00 0.15 0.01 86 1012.1
20240518081026 66 0 0.0 1.0 0.00 0.15 0.01 86 1012.1
20240518080525 66 0 0.0 1.0 0.00 0.15 0.01 86 1012.1
20240518080032 66 285 0.0 1.0 0.00 0.15 0.01 86 1012.3
20240518075526 66 0 0.0 1.0 0.00 0.15 0.01 86 1012.3
20240518075026 66 285 0.0 1.0 0.01 0.15 0.01 86 1012.6
20240518074540 66 0 0.0 1.0 0.01 0.15 0.01 86 1012.7
20240518074029 66 0 0.0 1.0 0.01 0.15 0.01 86 1012.6
20240518073527 66 0 0.0 0.0 0.01 0.15 0.01 86 1012.7
20240518073045 66 0 0.0 0.0 0.01 0.15 0.01 86 1012.7
20240518072527 66 0 0.0 0.0 0.01 0.15 0.01 86 1012.7
20240518072025 66 0 0.0 0.0 0.01 0.15 0.01 86 1012.7
20240518071542 66 0 0.0 0.0 0.01 0.15 0.01 86 1012.8
20240518071031 66 0 0.0 0.0 0.01 0.15 0.01 86 1012.7
20240518070526 66 0 0.0 0.0 0.01 0.15 0.01 85 1012.7
20240518070048 66 0 0.0 0.0 0.01 0.15 0.01 85 1012.8
20240518065526 66 0 0.0 0.0 0.01 0.15 0.01 85 1012.8
20240518065028 66 0 0.0 0.0 0.00 0.14 0.00 85 1012.8
20240518064540 66 0 0.0 0.0 0.00 0.14 0.00 85 1012.7
20240518064023 66 0 0.0 0.0 0.00 0.14 0.00 85 1012.4
20240518063525 66 0 0.0 0.0 0.00 0.14 0.00 85 1012.4
20240518063037 66 0 0.0 0.0 0.00 0.14 0.00 85 1012.3
20240518062531 66 0 0.0 0.0 0.00 0.14 0.00 85 1012.2
20240518062025 66 0 0.0 0.0 0.00 0.14 0.00 85 1012.2
20240518061605 66 0 0.0 1.0 0.00 0.14 0.00 85 1012.1
20240518061027 66 0 0.0 1.0 0.00 0.14 0.00 85 1012.2
20240518060526 66 0 0.0 1.0 0.00 0.14 0.00 84 1012.3
20240518060105 66 0 0.0 1.0 0.00 0.14 0.00 84 1012.4
20240518055530 66 0 0.0 1.0 0.00 0.14 0.00 84 1012.4
20240518055030 66 0 0.0 0.0 0.00 0.14 0.00 84 1012.3
20240518054539 66 0 0.0 0.0 0.00 0.14 0.00 83 1012.2
20240518054026 66 0 0.0 0.0 0.00 0.14 0.00 83 1012.2
20240518053548 66 0 0.0 0.0 0.00 0.14 0.00 83 1012.4
20240518053045 66 0 0.0 0.0 0.00 0.14 0.00 82 1012.4
20240518052527 66 0 0.0 0.0 0.00 0.14 0.00 82 1012.7
20240518052027 66 0 0.0 0.0 0.00 0.14 0.00 81 1012.7
20240518051607 66 0 0.0 0.0 0.00 0.14 0.00 80 1012.7
20240518051026 66 0 0.0 0.0 0.00 0.14 0.00 80 1012.7
20240518050634 66 0 0.0 0.0 0.00 0.14 0.00 80 1012.7
20240518050106 66 0 0.0 1.0 0.00 0.14 0.00 80 1012.7
20240518045529 66 0 0.0 1.0 0.00 0.14 0.00 80 1012.8
20240518045025 66 0 0.0 1.0 0.00 0.14 0.00 80 1012.8
20240518044541 66 0 0.0 1.0 0.00 0.14 0.00 80 1012.8
20240518044036 66 0 0.0 1.0 0.00 0.14 0.00 80 1012.9
20240518043531 66 0 0.0 1.0 0.00 0.14 0.00 79 1012.8
20240518043045 66 0 0.0 0.0 0.00 0.14 0.00 79 1012.9
20240518042530 66 0 0.0 0.0 0.00 0.14 0.00 79 1012.9
20240518042032 66 0 0.0 0.0 0.00 0.14 0.00 78 1012.9
20240518041547 66 0 0.0 0.0 0.00 0.14 0.00 78 1012.8
20240518041031 66 0 0.0 1.0 0.00 0.14 0.00 78 1012.8
20240518040529 66 0 0.0 1.0 0.00 0.14 0.00 78 1013.0
20240518040047 66 0 0.0 1.0 0.00 0.14 0.00 77 1013.1
20240518035526 66 0 0.0 0.0 0.00 0.14 0.14 77 1013.1
20240518035023 66 0 0.0 0.0 0.00 0.14 0.14 77 1013.0
20240518034534 66 0 0.0 0.0 0.00 0.14 0.14 76 1012.9
20240518034025 66 0 0.0 0.0 0.00 0.14 0.14 76 1013.0
20240518033524 66 0 0.0 0.0 0.00 0.14 0.14 76 1013.0
20240518033046 66 0 0.0 0.0 0.00 0.14 0.14 76 1012.8
20240518032524 66 0 0.0 0.0 0.00 0.14 0.14 76 1012.8
20240518032024 66 0 0.0 0.0 0.00 0.14 0.14 76 1012.8
20240518031538 66 0 0.0 0.0 0.00 0.14 0.14 75 1012.9
20240518031028 67 0 0.0 0.0 0.00 0.14 0.14 75 1012.8
20240518030524 67 0 0.0 0.0 0.00 0.14 0.14 75 1012.8
20240518030041 66 0 0.0 0.0 0.00 0.14 0.14 75 1012.9
20240518025521 66 0 0.0 0.0 0.00 0.14 0.14 75 1013.0
20240518025024 67 0 0.0 0.0 0.00 0.14 0.14 75 1013.1
20240518024548 66 0 0.0 0.0 0.00 0.14 0.14 75 1013.0
20240518024022 66 0 0.0 0.0 0.00 0.14 0.14 75 1013.0
20240518023523 66 0 0.0 0.0 0.00 0.14 0.14 75 1012.8
20240518023033 66 0 0.0 0.0 0.00 0.14 0.14 75 1012.9
20240518022523 66 0 0.0 0.0 0.00 0.14 0.14 74 1012.9
20240518022027 66 0 0.0 0.0 0.00 0.14 0.14 74 1012.7
20240518021541 66 0 0.0 0.0 0.00 0.14 0.14 74 1012.4
20240518021024 66 0 0.0 0.0 0.00 0.14 0.14 73 1012.4
20240518020523 66 0 0.0 0.0 0.00 0.14 0.14 73 1012.4
20240518020036 67 0 0.0 0.0 0.00 0.14 0.14 73 1012.4
20240518015525 67 0 0.0 0.0 0.00 0.14 0.14 73 1012.4
20240518015022 67 0 0.0 1.0 0.00 0.14 0.14 73 1012.4
20240518014529 67 0 0.0 1.0 0.00 0.14 0.14 72 1012.4
20240518014024 67 75 0.0 1.0 0.00 0.14 0.14 72 1012.4
20240518013523 67 0 0.0 1.0 0.00 0.14 0.14 72 1012.4
20240518013024 67 0 0.0 1.0 0.00 0.14 0.14 72 1012.4
20240518012524 67 0 0.0 1.0 0.00 0.14 0.14 72 1012.4
20240518012022 67 75 0.0 2.0 0.00 0.14 0.14 72 1012.4
20240518011525 67 0 0.0 2.0 0.00 0.14 0.14 72 1012.4
20240518011024 67 319 0.0 1.0 0.00 0.14 0.14 72 1012.7
20240518010523 67 3 0.0 1.0 0.00 0.14 0.14 72 1012.5
20240518010026 67 0 0.0 2.0 0.00 0.14 0.14 72 1012.7
20240518005523 67 278 0.0 2.0 0.00 0.14 0.14 71 1012.7
20240518005023 67 0 0.0 2.0 0.00 0.14 0.14 71 1012.7
20240518004532 67 0 0.0 1.0 0.00 0.14 0.14 72 1012.4
20240518004025 67 0 0.0 1.0 0.00 0.14 0.14 71 1012.4
20240518003523 67 330 0.0 1.0 0.00 0.14 0.14 71 1012.3
20240518003029 67 0 0.0 1.0 0.00 0.14 0.14 71 1012.3
20240518002523 67 0 0.0 1.0 0.00 0.14 0.14 71 1012.2
20240518002026 67 0 0.0 1.0 0.00 0.14 0.14 71 1012.0
20240518001526 67 0 0.0 1.0 0.00 0.14 0.14 71 1012.1
20240518001023 67 281 0.0 2.0 0.00 0.14 0.14 71 1012.0
20240518000523 68 0 0.0 2.0 0.00 0.14 0.14 71 1011.8
20240518000030 68 282 0.0 1.0 0.00 0.14 0.14 71 1012.0
20240517235524 68 0 0.0 1.0 0.00 0.14 0.14 71 1011.9
20240517235022 68 0 0.0 1.0 0.00 0.14 0.14 71 1011.9
20240517234522 68 0 0.0 1.0 0.00 0.14 0.14 71 1011.8
20240517234022 68 0 0.0 1.0 0.00 0.14 0.14 70 1011.8
20240517233526 68 136 0.0 2.0 0.00 0.14 0.14 70 1011.6
20240517233024 69 0 0.0 2.0 0.00 0.14 0.14 70 1011.3
20240517232523 69 0 0.0 3.0 0.00 0.14 0.14 70 1011.3
20240517232023 69 312 0.0 3.0 0.00 0.14 0.14 71 1011.3
20240517231545 70 0 0.0 1.0 0.00 0.14 0.14 72 1011.1
20240517231023 70 0 0.0 2.0 0.00 0.14 0.14 72 1011.2
20240517230522 70 0 0.0 2.0 0.00 0.14 0.14 71 1011.1
20240517230026 70 0 0.0 2.0 0.00 0.14 0.14 71 1011.2
20240517225520 70 0 0.0 2.0 0.00 0.14 0.14 71 1011.1
20240517225023 70 0 0.0 1.0 0.00 0.14 0.14 72 1011.2
20240517224524 70 0 0.0 1.0 0.00 0.14 0.14 72 1011.4
20240517224020 70 0 0.0 1.0 0.00 0.14 0.14 71 1011.5